Weather History for Brisbane Airport M. O, Queensland

Change the Weather History Date:

Tuesday, December 25, 2012

  Actual Average Record
Temperature  
Mean Temperature 75 °F -  
Max Temperature 85 °F 85 °F - ()
Min Temperature 65 °F 70 °F - ()
Cooling Degree Days 10    
Growing Degree Days 25 (Base 50)    
Moisture  
Dew Point 64 °F    
Average Humidity 64    
Maximum Humidity 88    
Minimum Humidity 35    
Precipitation  
Precipitation 0.08 in 0.21 in - ()
Sea Level Pressure  
Sea Level Pressure 29.87 in    
Wind  
Wind Speed 8 mph ()    
Max Wind Speed 21 mph    
Max Gust Speed -    
Visibility 7.8 miles    
Events      
T = Trace of Precipitation, MM = Missing Value Source: Averaged Metar Reports

Daily Weather History Graph

Daily Weather History Graph

Search for Another Location

Airport:

Trip Planner

Search our weather history database for the weather conditions in past years. The results will help you decide how hot, cold, wet, or windy it might be!

Date:

Astronomy

Dec. 25, 2012 Rise Set
Actual Time 4:51 AM AEST 6:43 PM AEST
Civil Twilight 4:24 AM AEST 7:10 PM AEST
Nautical Twilight 3:52 AM AEST 7:42 PM AEST
Astronomical Twilight 3:18 AM AEST 8:16 PM AEST
Moon 4:03 PM AEST (12/25) 2:13 AM AEST (12/25)
Length of Visible Light 14h 45m
Length of Day
13h 52m
Waxing Gibbous, 90% of the Moon is Illuminated
Dec 25
Waxing Gibbous
Dec 28
Full
Jan 5
Last Quarter
Jan 12
New
Jan 19
First Quarter

Hourly Weather History & Observations

Time (AEST) Temp. Heat Index Dew Point Humidity Pressure Visibility Wind Dir Wind Speed Gust Speed Precip Events Conditions
12:00 AM 70 °F - 64 °F 75% 29.95 in 12 mi NNE 4.6 mph - -   Haze
12:00 AM 69.8 °F - 64.4 °F 83% 29.95 in 6.2 mi NNE 4.6 mph - N/A   Scattered Clouds
12:30 AM 69.8 °F - 64.4 °F 83% 29.92 in 6.2 mi WSW 4.6 mph - N/A   Scattered Clouds
1:00 AM 70 °F - 64 °F 75% 29.94 in - WSW 3.5 mph - -  
1:00 AM 69.8 °F - 64.4 °F 83% 29.92 in 6.2 mi WSW 3.5 mph - N/A   Partly Cloudy
1:30 AM 69.8 °F - 64.4 °F 83% 29.92 in 6.2 mi SW 1.2 mph - N/A   Partly Cloudy
2:00 AM 68.0 °F - 64.4 °F 88% 29.92 in 6.2 mi SW 3.5 mph - N/A   Partly Cloudy
2:30 AM 68.0 °F - 62.6 °F 83% 29.89 in 6.2 mi SSW 4.6 mph - N/A   Partly Cloudy
3:00 AM 68 °F - 63 °F 80% 29.91 in 16 mi SW 4.6 mph - -   Partly Cloudy
3:00 AM 68.0 °F - 62.6 °F 83% 29.89 in 6.2 mi SW 4.6 mph - N/A   Partly Cloudy
3:30 AM 68.0 °F - 62.6 °F 83% 29.89 in 6.2 mi SSW 4.6 mph - N/A   Partly Cloudy
4:00 AM 66 °F - 63 °F 85% 29.91 in - SSW 4.6 mph - -  
4:00 AM 66.2 °F - 62.6 °F 88% 29.89 in 6.2 mi SSW 4.6 mph - N/A   Partly Cloudy
4:30 AM 66.2 °F - 62.6 °F 88% 29.92 in 6.2 mi WSW 4.6 mph - N/A   Partly Cloudy
5:00 AM 66.2 °F - 62.6 °F 88% 29.92 in 6.2 mi SSW 5.8 mph - N/A   Partly Cloudy
5:30 AM 68.0 °F - 64.4 °F 88% 29.92 in 6.2 mi SSW 5.8 mph - N/A   Partly Cloudy
6:00 AM 70 °F - 64 °F 75% 29.94 in 16 mi SSW 6.9 mph - -   Partly Cloudy
6:00 AM 69.8 °F - 64.4 °F 83% 29.92 in 6.2 mi SSW 6.9 mph - N/A   Partly Cloudy
6:30 AM 71.6 °F - 64.4 °F 78% 29.95 in 6.2 mi SSW 6.9 mph - N/A   Partly Cloudy
7:00 AM 75 °F - 65 °F 62% 29.95 in - WSW 5.8 mph - -  
7:00 AM 75.2 °F - 64.4 °F 69% 29.95 in 6.2 mi WSW 5.8 mph - N/A   Partly Cloudy
7:30 AM 77.0 °F - 64.4 °F 65% 29.95 in 6.2 mi West 5.8 mph - N/A   Partly Cloudy
8:00 AM 77.0 °F - 62.6 °F 61% 29.95 in 6.2 mi NW 5.8 mph - N/A   Partly Cloudy
8:30 AM 78.8 °F - 62.6 °F 57% 29.95 in 6.2 mi NNE 6.9 mph - N/A   Scattered Clouds
9:00 AM 79 °F - 63 °F 48% 29.95 in 19 mi North 6.9 mph - -   Partly Cloudy
9:00 AM 78.8 °F - 62.6 °F 57% 29.95 in 6.2 mi North 6.9 mph - N/A   Mostly Cloudy
9:30 AM 80.6 °F 81.8 °F 62.6 °F 54% 29.95 in 6.2 mi North 10.4 mph - N/A   Mostly Cloudy
10:00 AM 82 °F - 64 °F 44% 29.94 in - NNE 11.5 mph - -  
10:00 AM 82.4 °F 83.9 °F 64.4 °F 54% 29.92 in 6.2 mi NNE 11.5 mph - N/A   Scattered Clouds
10:30 AM 80.6 °F 82.3 °F 64.4 °F 58% 29.92 in 6.2 mi NNE 12.7 mph - N/A   Scattered Clouds
11:00 AM 82.4 °F 82.9 °F 60.8 °F 48% 29.89 in 6.2 mi NNE 13.8 mph - N/A   Scattered Clouds
11:30 AM 82.4 °F 82.9 °F 60.8 °F 48% 29.89 in 6.2 mi NNE 13.8 mph - N/A   Partly Cloudy
12:00 PM 83 °F - 60 °F 35% 29.87 in 19 mi NNE 16.1 mph - -   Partly Cloudy
12:00 PM 84.2 °F 83.8 °F 59.0 °F 42% 29.86 in 6.2 mi NNE 16.1 mph - N/A   Partly Cloudy
12:30 PM 84.2 °F 85.0 °F 62.6 °F 48% 29.83 in 6.2 mi NNE 17.3 mph - N/A   Partly Cloudy
1:00 PM 85 °F - 63 °F 37% 29.84 in - NNE 17.3 mph - -  
1:00 PM 84.2 °F 85.0 °F 62.6 °F 48% 29.83 in 6.2 mi NNE 17.3 mph - N/A   Partly Cloudy
1:30 PM 84.2 °F 84.4 °F 60.8 °F 45% 29.83 in 6.2 mi NNE 17.3 mph - N/A   Partly Cloudy
2:00 PM 84.2 °F 86.6 °F 66.2 °F 55% 29.80 in 6.2 mi NNE 18.4 mph - N/A   Partly Cloudy
2:30 PM 82.4 °F 83.9 °F 64.4 °F 54% 29.80 in 6.2 mi North 19.6 mph - N/A   Partly Cloudy
3:00 PM 82 °F - 64 °F 45% 29.79 in 19 mi North 19.6 mph - -   Partly Cloudy
3:00 PM 82.4 °F 83.9 °F 64.4 °F 54% 29.77 in 6.2 mi North 19.6 mph - N/A   Partly Cloudy
3:30 PM 82.4 °F 83.9 °F 64.4 °F 54% 29.77 in 6.2 mi North 19.6 mph - N/A   Partly Cloudy
4:00 PM 82 °F - 64 °F 45% 29.78 in - North 20.7 mph - -  
4:00 PM 82.4 °F 83.9 °F 64.4 °F 54% 29.77 in 6.2 mi North 20.7 mph - N/A   Partly Cloudy
4:30 PM 80.6 °F 82.3 °F 64.4 °F 58% 29.77 in 6.2 mi North 19.6 mph - N/A   Partly Cloudy
5:00 PM 80.6 °F 81.8 °F 62.6 °F 54% 29.77 in 6.2 mi North 19.6 mph - N/A   Partly Cloudy
5:30 PM 78.8 °F - 62.6 °F 57% 29.77 in 6.2 mi North 17.3 mph - N/A   Partly Cloudy
6:00 PM 78 °F - 63 °F 51% 29.81 in 19 mi NNE 16.1 mph - -   Haze
6:00 PM 78.8 °F - 62.6 °F 57% 29.80 in 6.2 mi North 16.1 mph - N/A   Scattered Clouds
6:30 PM 77.0 °F - 64.4 °F 65% 29.80 in 6.2 mi NNE 17.3 mph - N/A   Scattered Clouds
7:00 PM 77 °F - 65 °F 57% 29.82 in - NNE 16.1 mph - -  
7:00 PM 77.0 °F - 64.4 °F 65% 29.80 in 6.2 mi NNE 16.1 mph - N/A   Scattered Clouds
7:30 PM 77.0 °F - 66.2 °F 69% 29.83 in - NNE 13.8 mph - N/A   Clear
8:00 PM 77.0 °F - 66.2 °F 69% 29.83 in 6.2 mi NNE 13.8 mph - N/A   Scattered Clouds
8:30 PM 77.0 °F - 66.2 °F 69% 29.83 in 6.2 mi NNE 15.0 mph - N/A   Scattered Clouds
9:00 PM 76 °F - 66 °F 64% 29.87 in 19 mi NNE 11.5 mph - -   Partly Cloudy
9:00 PM 77.0 °F - 66.2 °F 69% 29.86 in 6.2 mi NNE 11.5 mph - N/A   Mostly Cloudy
9:30 PM 77.0 °F - 66.2 °F 69% 29.86 in 6.2 mi North 13.8 mph - N/A   Mostly Cloudy
10:00 PM 76 °F - 66 °F 64% 29.87 in - NNE 13.8 mph - -  
10:00 PM 77.0 °F - 66.2 °F 69% 29.86 in 6.2 mi NNE 13.8 mph - N/A   Mostly Cloudy
10:30 PM 77.0 °F - 66.2 °F 69% 29.86 in 6.2 mi North 12.7 mph - N/A   Mostly Cloudy
11:00 PM 77.0 °F - 66.2 °F 69% 29.86 in 6.2 mi North 13.8 mph - N/A   Mostly Cloudy
11:30 PM 77.0 °F - 66.2 °F 69% 29.86 in 6.2 mi North 11.5 mph - N/A   Mostly Cloudy